Gainesville, GA

1:40 AM EST on November 25, 2017 (GMT -0500)
Gilmer Memorial

Weather History for KGVL - December, 2012

Change the Weather History Date:

Monday, December 17, 2012

  Actual Average Record
Temperature  
Mean Temperature 54 °F 43 °F  
Max Temperature 57 °F 52 °F 73 °F (1933)
Min Temperature 51 °F 35 °F 13 °F (1972)
Degree Days  
Heating Degree Days 11 22  
Month to date heating degree days 340  
Since 1 July heating degree days 875  
Growing Degree Days 4 (Base 50)    
Moisture  
Dew Point 52 °F    
Average Humidity 96    
Maximum Humidity 100    
Minimum Humidity 88    
Precipitation  
Precipitation 0.12 in 0.15 in 3.30 in (1992)
Month to date precipitation 2.90  
Year to date precipitation 52.38  
Snow  
Snow 0.00 in - - ()
Month to date snowfall  
Since 1 July snowfall  
Snow Depth -    
Sea Level Pressure  
Sea Level Pressure 29.81 in    
Wind  
Wind Speed 4 mph (SSW)    
Max Wind Speed 10 mph    
Max Gust Speed -    
Visibility 7 miles    
Events Fog , Rain    
T = Trace of Precipitation, MM = Missing Value Source: NWS Daily Summary

Daily Weather History Graph

Daily Weather History Graph

Search for Another Location

Airport or City:

Trip Planner

Search our weather history database for the weather conditions in past years. The results will help you decide how hot, cold, wet, or windy it might be!

Date:

Astronomy

Dec. 17, 2012 Rise Set
Actual Time 7:35 AM EST 5:27 PM EST
Civil Twilight 7:07 AM EST 5:55 PM EST
Nautical Twilight 6:36 AM EST 6:27 PM EST
Astronomical Twilight 6:05 AM EST 6:57 PM EST
Moon 10:54 AM EST (12/17) 10:36 PM EST (12/17)
Length of Visible Light 10h 48m
Length of Day
9h 52m
Waxing Crescent, 24% of the Moon is Illuminated
Dec 17
Waxing Crescent
Dec 20
First Quarter
Dec 28
Full
Jan 4
Last Quarter
Jan 11
New

Hourly Weather History & Observations

Time (EST) Temp. Dew Point Humidity Pressure Visibility Wind Dir Wind Speed Gust Speed Precip Events Conditions
12:13 AM 51.8 °F 51.8 °F 100% 29.95 in 2.0 mi South 3.5 mph - 0.01 in Rain Light Rain
12:21 AM 51.8 °F 51.8 °F 100% 29.94 in 3.0 mi South 4.6 mph - 0.02 in Rain Light Rain
12:31 AM 51.8 °F 50.0 °F 94% 29.92 in 2.0 mi SE 4.6 mph - 0.02 in Rain Light Rain
12:48 AM 51.8 °F 50.0 °F 94% 29.90 in 0.5 mi SE 5.8 mph - 0.03 in Fog , Rain Light Rain
12:53 AM 51.1 °F 50.0 °F 96% 29.88 in 0.2 mi SE 6.9 mph - 0.03 in Fog , Rain Light Rain
1:11 AM 51.8 °F 51.8 °F 100% 29.86 in 0.5 mi SE 9.2 mph - 0.00 in Fog , Rain Light Rain
1:53 AM 51.1 °F 51.1 °F 100% 29.85 in 1.5 mi SE 6.9 mph - 0.01 in   Overcast
1:56 AM 51.8 °F 51.8 °F 100% 29.86 in 2.0 mi SSE 5.8 mph - N/A   Overcast
2:01 AM 51.8 °F 51.8 °F 100% 29.87 in 3.0 mi SE 3.5 mph - N/A   Overcast
2:22 AM 51.8 °F 50.0 °F 94% 29.86 in 9.0 mi Calm Calm - N/A   Mostly Cloudy
2:32 AM 51.8 °F 50.0 °F 94% 29.88 in 7.0 mi Calm Calm - N/A   Mostly Cloudy
2:53 AM 51.1 °F 51.1 °F 100% 29.87 in 7.0 mi Calm Calm - N/A   Overcast
3:13 AM 51.8 °F 50.0 °F 94% 29.89 in 5.0 mi SW 3.5 mph - N/A   Overcast
3:40 AM 51.8 °F 51.8 °F 100% 29.87 in 5.0 mi Calm Calm - N/A   Overcast
3:53 AM 52.0 °F 51.1 °F 97% 29.86 in 6.0 mi Calm Calm - N/A   Overcast
4:53 AM 52.0 °F 51.1 °F 97% 29.86 in 9.0 mi Calm Calm - N/A   Overcast
5:15 AM 51.8 °F 50.0 °F 94% 29.86 in 5.0 mi Calm Calm - N/A   Overcast
5:53 AM 51.1 °F 51.1 °F 100% 29.86 in 3.0 mi Calm Calm - N/A   Overcast
6:00 AM 51.8 °F 51.8 °F 100% 29.87 in 3.0 mi Calm Calm - N/A   Overcast
6:29 AM 51.8 °F 51.8 °F 100% 29.86 in 4.0 mi Calm Calm - N/A   Overcast
6:53 AM 52.0 °F 51.1 °F 97% 29.86 in 9.0 mi Calm Calm - N/A   Overcast
7:53 AM 52.0 °F 50.0 °F 93% 29.85 in 9.0 mi Calm Calm - N/A   Overcast
8:08 AM 51.8 °F 51.8 °F 100% 29.87 in 9.0 mi Calm Calm - N/A   Overcast
8:34 AM 51.8 °F 51.8 °F 100% 29.86 in 6.0 mi Calm Calm - 0.00 in Rain Light Rain
8:53 AM 52.0 °F 51.1 °F 97% 29.86 in 4.0 mi Calm Calm - 0.01 in Rain Light Rain
8:58 AM 51.8 °F 51.8 °F 100% 29.86 in 2.0 mi South 3.5 mph - 0.01 in Rain Rain
9:07 AM 51.8 °F 50.0 °F 94% 29.84 in 3.0 mi SE 4.6 mph - 0.02 in Rain Light Rain
9:17 AM 51.8 °F 51.8 °F 100% 29.84 in 4.0 mi SSE 5.8 mph - 0.02 in Rain Light Rain
9:24 AM 51.8 °F 51.8 °F 100% 29.84 in 3.0 mi SE 3.5 mph - 0.03 in Rain Light Rain
9:36 AM 51.8 °F 51.8 °F 100% 29.83 in 2.5 mi Variable 4.6 mph - 0.05 in Rain Rain
9:48 AM 51.8 °F 51.8 °F 100% 29.85 in 4.0 mi Calm Calm - 0.06 in Rain Light Rain
9:53 AM 52.0 °F 51.1 °F 97% 29.84 in 5.0 mi South 5.8 mph - 0.06 in Rain Light Rain
10:53 AM 53.1 °F 52.0 °F 96% 29.83 in 10.0 mi SW 5.8 mph - 0.01 in   Overcast
11:08 AM 53.6 °F 51.8 °F 94% 29.84 in 10.0 mi SW 5.8 mph - N/A   Overcast
11:53 AM 55.0 °F 53.1 °F 93% 29.80 in 10.0 mi North - - N/A   Overcast
12:53 PM 55.9 °F 53.1 °F 90% 29.78 in 10.0 mi SSW 4.6 mph - N/A   Overcast
1:53 PM 55.9 °F 54.0 °F 93% 29.74 in 10.0 mi SSW 4.6 mph - N/A   Overcast
2:46 PM 57.2 °F 53.6 °F 88% 29.74 in 10.0 mi SW 4.6 mph - N/A   Overcast
2:53 PM 57.0 °F 54.0 °F 89% 29.72 in 10.0 mi South 6.9 mph - N/A   Overcast
3:53 PM 57.0 °F 54.0 °F 89% 29.70 in 10.0 mi SW 5.8 mph - N/A   Overcast
4:22 PM 57.2 °F 55.4 °F 94% 29.73 in 6.0 mi SW 5.8 mph - 0.00 in   Overcast
4:53 PM 55.9 °F 55.0 °F 97% 29.71 in 3.0 mi SW 6.9 mph - 0.00 in Rain Light Rain
5:00 PM 55.4 °F 55.4 °F 100% 29.73 in 4.0 mi SW 6.9 mph - 0.00 in   Overcast
7:28 PM 55.4 °F 53.6 °F 94% 29.74 in 10.0 mi SW 5.8 mph - N/A   Scattered Clouds
7:35 PM 55.4 °F 53.6 °F 94% 29.74 in 10.0 mi SW 8.1 mph - N/A   Mostly Cloudy
7:53 PM 55.0 °F 53.1 °F 93% 29.73 in 10.0 mi SW 9.2 mph - N/A   Mostly Cloudy
8:02 PM 55.4 °F 53.6 °F 94% 29.74 in 10.0 mi WSW 8.1 mph - N/A   Mostly Cloudy
8:23 PM 55.4 °F 53.6 °F 94% 29.74 in 10.0 mi WSW 8.1 mph - N/A   Overcast
8:36 PM 55.4 °F 53.6 °F 94% 29.74 in 10.0 mi WSW 6.9 mph - N/A   Overcast
8:53 PM 55.0 °F 52.0 °F 89% 29.73 in 10.0 mi SW 8.1 mph - N/A   Overcast
9:29 PM 55.4 °F 51.8 °F 88% 29.75 in 10.0 mi SW 8.1 mph - N/A   Mostly Cloudy
9:31 PM 55.4 °F 51.8 °F 88% 29.75 in 10.0 mi SW 10.4 mph - N/A   Mostly Cloudy
9:46 PM 53.6 °F 51.8 °F 94% 29.75 in 10.0 mi SW 6.9 mph - N/A   Partly Cloudy
9:53 PM 54.0 °F 51.1 °F 90% 29.74 in 10.0 mi SW 6.9 mph - N/A   Clear
10:53 PM 53.1 °F 51.1 °F 93% 29.74 in 10.0 mi SW 6.9 mph - N/A   Partly Cloudy
11:15 PM 53.6 °F 51.8 °F 94% 29.76 in 10.0 mi SW 8.1 mph - N/A   Mostly Cloudy
11:39 PM 53.6 °F 51.8 °F 94% 29.75 in 10.0 mi WSW 8.1 mph - N/A   Overcast
11:53 PM 54.0 °F 52.0 °F 93% 29.73 in 10.0 mi SW 10.4 mph - N/A   Overcast